Regional Weather Roundup
Issued by NWS

Home | Current Version | Previous Version | Text Only | Print | Product List | Glossary On
Versions: 1 2 3 4 5 6 7 8 9 10 11 12 13 14 15 16 17 18 19 20 21 22 23 24 25 26 27 28 29 30 31 32 33 34 35 36 37 38 39 40 41 42 43 44 45 46 47 48 49 50
000
ASUS43 KLMK 201110
RWRKY
KENTUCKY REGIONAL WEATHER ROUNDUP
NATIONAL WEATHER SERVICE LOUISVILLE KY
600 AM EST MON NOV 20 2017

NOTE "FAIR" INDICATES FEW OR NO CLOUDS BELOW 12,000 FEET
WITH NO SIGNIFICANT WEATHER AND/OR OBSTRUCTIONS TO VISIBILITY.

KYZ001>023-026-027-061>063-070>075-201200-
WESTERN AND SOUTH CENTRAL KENTUCKY

CITY           SKY/WX    TMP DP  RH WIND       PRES   REMARKS
PADUCAH        CLOUDY    26  21  81 CALM      30.22S
HENDERSON      NOT AVBL
OWENSBORO      CLOUDY    27  23  85 SE5       30.24R WCI  22
HOPKINSVILLE   CLOUDY    26  23  88 CALM      30.23R
BOWLING GREEN  CLOUDY    25  23  92 CALM      30.26R
GLASGOW        PTCLDY    22  22 100 CALM      30.24S
$$

KYZ024-025-028>034-038-045-046-053-201200-
NORTH CENTRAL KENTUCKY

CITY           SKY/WX    TMP DP  RH WIND       PRES   REMARKS
LOUISVILLE/SDF CLEAR     28  22  78 SE3       30.23R
LOUISVILLE/LOU CLEAR     27  23  85 S3        30.23R
FORT KNOX      CLOUDY    24  20  84 CALM      30.21R
$$

KYZ035>037-039>044-047>052-055>060-089>105-201200-
NORTHEAST KENTUCKY

CITY           SKY/WX    TMP DP  RH WIND       PRES   REMARKS
LEXINGTON      CLOUDY    25  19  78 S6        30.22R WCI  18
COVINGTON      PTCLDY    25  22  88 SW3       30.19R
FRANKFORT      CLEAR     25  19  78 CALM      30.21R
$$

KYZ054-064>069-076>088-106>120-201200-
SOUTHEAST KENTUCKY

CITY           SKY/WX    TMP DP  RH WIND       PRES   REMARKS
JACKSON        CLEAR     27  23  85 CALM      30.21R
LONDON         CLEAR     24  22  91 CALM      30.23R
SOMERSET       FOG       25  25 100 CALM      30.26R VSB 1/4
MIDDLESBORO    CLEAR     25  24  98 CALM      30.25R
MONTICELLO     SUNNY     18  16  92 W10       30.26R WCI   6
$$




USA.gov is the U.S. government's official web portal to all federal, state and local government web resources and services.